Tracking 29511 objects as of 15-Sep-2024
HD Live streaming from Space Station
objects crossing your sky now

FENGYUN 1C DEB

Track FENGYUN 1C DEB now!
10-day predictions


NORAD ID: 46986
Int'l Code: 1999-025EZL
Perigee: 672.5 km
Apogee: 830.0 km
Inclination: 98.3 °
Period: 99.7 minutes
Semi major axis: 7122 km
RCS: Unknown
Launch date: May 10, 1999
Source: People's Republic of China (PRC)
Launch site: Taiyaun Space Center, China (TSC)

Note: This is SATELLITE DEBRIS
Your satellite tracking list
Your tracking list is empty




NASA's NSSDC Master Catalog

Two Line Element Set (TLE):
1 46986U 99025EZL 24258.82981773  .00005719  00000-0  15524-2 0  9995
2 46986  98.2857 288.2076 0110620 154.0167 206.6636 14.44366760916928
Source of the keplerian elements: AFSPC